Retour au catalogue

STARLINK-4569

ActifCommunicationsSSO
NORAD 53687·PAYLOAD·🇺🇸 United States

Lancé Aug 31, 2022 depuis Vandenberg Space Force Base

Loading…

Prochains Passages (prochaines 24 heures)

TLE

FraisSource: CelesTrak SupGP

Époque: Sep 14, 2026, 20:56 UTC

1 53687C 22105AR  26257.87270833 -.00062789  00000+0 -19457-2 0  2577
2 53687  97.2841 134.6739 0002088  86.7005 129.0705 15.33525356    12

Suivez STARLINK-4569 en temps réel avec AllMySat

Download on the App Store